Regional Weather Roundup
Issued by NWS

Home | Current Version | Previous Version | Text Only | Print | Product List | Glossary Off
Versions: 1 2 3 4 5 6 7 8 9 10 11 12 13 14 15 16 17 18 19 20 21 22 23 24 25 26 27 28 29 30 31 32 33 34 35 36 37 38 39 40 41 42 43 44 45 46 47 48 49 50

000
ASUS43 KLOT 291209
RWRIL

ILLINOIS REGIONAL WEATHER ROUNDUP
NATIONAL WEATHER SERVICE CHICAGO/ROMEOVILLE IL
700 AM CDT MON MAY 29 2017

NOTE: "FAIR" INDICATES FEW OR NO CLOUDS BELOW 12,000 FEET WITH NO
SIGNIFICANT WEATHER AND/OR OBSTRUCTIONS TO VISIBILITY.

* THESE STATIONS ARE NOT UNDER NWS QUALITY CONTROL. THEY ALSO MAY NOT
  REPORT WEATHER SUCH AS PRECIPITATION OR FOG.

ILZ001-002-007-009-015-016-024-291300-
NORTHWEST ILLINOIS

CITY           SKY/WX    TMP DP  RH WIND       PRES   REMARKS
MOLINE         SUNNY     60  50  69 SW3       29.84F
6HR MIN TEMP:  54; 6HR MAX TEMP:  62;

STERLING*      PTSUNNY   59  52  77 W7        29.85R
SAVANNA*       CLOUDY    61  48  63 W5        29.83F
$$

ILZ003-004-008-010-011-017-018-291300-
NORTH CENTRAL ILLINOIS

CITY           SKY/WX    TMP DP  RH WIND       PRES   REMARKS
ROCKFORD       MOSUNNY   59  49  69 NW8       29.82S
6HR MIN TEMP:  53; 6HR MAX TEMP:  60; 6HR PCP: TRACE;

FREEPORT*      CLOUDY    60  48  64 W9        29.85R
ROCHELLE*      MOSUNNY   59  51  75 W6        29.83S
DE KALB*       MOSUNNY   61  50  65 W12       29.84R
PERU*          SUNNY     59  48  67 W8        29.84S
$$

ILZ005-006-012>014-019>023-291300-
NORTHEAST ILLINOIS

CITY           SKY/WX    TMP DP  RH WIND       PRES   REMARKS
CHICAGO-OHARE  MOSUNNY   63  49  60 W8        29.79R
6HR MIN TEMP:  59; 6HR MAX TEMP:  64;

CHICAGO-MIDWAY MOSUNNY   64  51  62 W8        29.81R
6HR MIN TEMP:  61; 6HR MAX TEMP:  65;

AURORA         SUNNY     62  52  69 W10       29.83R
6HR MIN TEMP:  54; 6HR MAX TEMP:  62;

LANSING*       SUNNY     62  55  76 SW6       29.82R
JOLIET*        SUNNY     63  53  70 W3        29.83R
WAUKEGAN       SUNNY     62  49  62 VRB6      29.77R
6HR MIN TEMP:  54; 6HR MAX TEMP:  62;

DUPAGE AIRPORT SUNNY     61  52  72 W7        29.81R
6HR MIN TEMP:  55; 6HR MAX TEMP:  61;

KANKAKEE*      SUNNY     62  54  74 CALM      29.85R
WHEELING       SUNNY     63  50  62 W7        29.79S
6HR MIN TEMP:  54; 6HR MAX TEMP:  63;

MORRIS*        SUNNY     60  52  74 CALM      29.82R
ROMEOVILLE*    SUNNY     61  55  80 W6        29.83R
NORTHERLY ISL    N/A     64  48  56 W5          N/A
$$

LMZ740>746-291300-
SOUTHERN LAKE MICHIGAN

STATION/POSITION SKY/WX   TEMP    WIND        PRES    VSBY  WAVE
                          AIR SEA DIR/SP/G                  HT/PER
                          (F)     (DEG/KT/KT) (MB)    (MI)  (FT/S)
SOUTHERN BUOY              52 47  240/ 10/ 12 1007.5          1
WILMETTE HARBOR            59 55  240/ 10/ 12   N/A           1/ 2
HARRISON CRIB              65     270/ 17/ 18   N/A
BURNHAM HARBOR             65     290/  6/  9   N/A
CALUMET HARBOR             63     220/  4/  7 1008.7R
BURNS HARBOR               63     220/  8/ 12 1009.8R
MICHIGAN CITY              62     190/ 11/ 12   N/A
MICHIGAN CITY 6N           59 56  210/  8/  8   N/A           1/ 2
ST. JOSEPH                 61 59  230/ 10/ 14 1009.0          1/ 2
$$

ILZ025>027-034>036-040-047-049-050-058-095>099-291300-
WEST-CENTRAL ILLINOIS

CITY           SKY/WX    TMP DP  RH WIND       PRES   REMARKS
QUINCY         SUNNY     59  53  80 S6        29.88S
GALESBURG*     SUNNY     58  51  77 W5        29.86S
MACOMB*        SUNNY     60  51  72 SW7       29.88S
JACKSONVILLE*  SUNNY     60  54  79 SW6       29.90R
PITTSFIELD*    SUNNY     62  53  73 SW3       29.91S
$$

ILZ028>032-037-038-041>044-048-051>054-059>061-291300-
CENTRAL ILLINOIS

CITY           SKY/WX    TMP DP  RH WIND       PRES   REMARKS
PONTIAC        SUNNY     61  54  77 SW5       29.86S
BLOOMINGTON    SUNNY     61  52  72 SW10      29.88S
DECATUR        SUNNY     64  55  72 SW5       29.89S
PEORIA         SUNNY     59  53  80 S6        29.86S
6HR MIN TEMP:  55; 6HR MAX TEMP:  64;

LACON*         SUNNY     62  50  64 CALM      29.84S
LINCOLN*       SUNNY     64  55  72 CALM      29.88S
SPRINGFIELD    SUNNY     63  56  78 CALM      29.90S
6HR MIN TEMP:  59; 6HR MAX TEMP:  66;

TAYLORVILLE    SUNNY     63  56  78 W3        29.90S
6HR MIN TEMP:  59; 6HR MAX TEMP:  66;

$$

ILZ033-039-045-046-055>057-062-063-291300-
EAST-CENTRAL ILLINOIS

CITY           SKY/WX    TMP DP  RH WIND       PRES   REMARKS
CHAMPAIGN      SUNNY     62  55  77 W8        29.89R
RANTOUL*       SUNNY     65  56  73 W8        29.88S
MATTOON        SUNNY     63  57  81 SW7       29.90R
PARIS*         SUNNY     63  57  79 SW9       29.90S
$$

ILZ079-100>102-291300-
SOUTHWEST ILLINOIS

CITY           SKY/WX    TMP DP  RH WIND       PRES   REMARKS
ALTON          MOSUNNY   61  55  82 SW8       29.92R
BELLEVILLE     SUNNY     62  56  83 SW5       29.92F
CAHOKIA*       SUNNY     64  55  72 W5        29.92S
SPARTA*        SUNNY     62  56  81 SW3       29.94S
$$

ILZ064>066-069>071-074>076-080>082-084>086-088>090-092>094-291300-
SOUTH-CENTRAL ILLINOIS

CITY           SKY/WX    TMP DP  RH WIND       PRES   REMARKS
CARBONDALE     SUNNY     62  61  96 S3        29.94S
6HR MIN TEMP:  58; 6HR MAX TEMP:  62;

CAIRO*         CLOUDY    64  63  97 CALM      29.95S
EFFINGHAM*     SUNNY     62  60  93 CALM      29.93S
MARION         MOSUNNY   63  63 100 S6        29.95S
MT. VERNON       N/A     60  59  96 CALM      29.93S
CENTRALIA*     SUNNY     64  59  84 W3        29.92S
SALEM*         SUNNY     64  57  79 SW6       29.92S
METROPOLIS*    MOSUNNY   62  61  99 CALM      29.96S FOG
$$

ILZ067-068-072-073-078-083-087-091-291300-
SOUTHEAST ILLINOIS

CITY           SKY/WX    TMP DP  RH WIND       PRES   REMARKS
LAWRENCEVILLE  SUNNY     64  59  83 SW5       29.92F
FLORA*         SUNNY     65  58  78 SW5       29.92S
FAIRFIELD*     MOSUNNY   62  60  92 CALM      29.92S
HARRISBURG*    SUNNY     61  60  97 CALM      29.94F
ROBINSON*      SUNNY     64  57  78 W7        29.92S
CARMI*         SUNNY     64  60  87 CALM      29.93S
$$

ABBREVIATIONS USED IN REMARKS
   TC - TEMPERATURE IN CELSIUS
  WCI - WIND CHILL INDEX
   HX - HEAT INDEX
  VSB - VISIBILITY
$$





USA.gov is the U.S. government's official web portal to all federal, state and local government web resources and services.